Flag Weather past 2 weeks in São Paulo, São Paulo, Brazil

Now
73 °F

Partly sunny.


Feels Like: 76 °F
Forecast: 67 / 72 °F
Wind: 9 mph from South

Location: Sao Paulo Airport

Current Time: Nov 27, 2014 at 11:20:00 AM

Latest Report: Nov 27, 2014 at 11:00 AM


Visibility: N/A

Pressure: 30.04 "Hg

Humidity: 69%

Dew point: 63 °F

Location of São PauloLocation

Historic Weather in São Paulo — Graph

°F

São Paulo temperature yesterday

Maximum temperature yesterday: 82 °F (at 2:00 PM)
Minimum temperature yesterday: 68 °F (at 4:00 AM)
Average temperature yesterday: 72 °F

Past Weeks' High & Low Weather Summary

 TemperatureHumidityPressure
High88 °F (Nov 21, 2:00 PM)94% (Nov 23, 10:00 PM)30.18 "Hg (Nov 23, 10:00 PM)
Low54 °F (Nov 17, 6:00 AM)31% (Nov 19, 3:00 PM)29.80 "Hg (Nov 12, 5:00 PM)
Average69 °F71%30.02 "Hg
* Reported Nov 12 10:00 AM — Nov 27 10:00 AM, São Paulo, Weather by CustomWeather, © 2014

Note: Actual official high and low records may vary slightly from our data, if they occured in-between our weather recording intervals... More about our weather records

Advertising

São Paulo weather history for previous 24 hours

 ConditionsComfort  
Time TempWeatherWind HumidityBarometerVisibility
10:00 AM
Nov 27
72 °FBroken clouds.9 mph78%30.04 "HgN/A
9:00 AM70 °FPartly sunny.8 mph83%30.01 "HgN/A
8:00 AM70 °FPartly sunny.7 mph83%30.01 "HgN/A
7:00 AM68 °FPartly sunny.8 mph88%29.98 "HgN/A
6:00 AM68 °FPartly cloudy.6 mph88%29.95 "HgN/A
5:00 AM68 °FLight rain. Mostly cloudy.5 mph88%29.95 "HgN/A
4:00 AM68 °FLight rain. Passing clouds.1 mph88%29.95 "HgN/A
3:00 AM70 °FPartly cloudy.2 mph88%29.95 "HgN/A
2:00 AM70 °FLight rain. Mostly cloudy.7 mph88%29.95 "HgN/A
1:00 AM70 °FMostly cloudy.5 mph88%29.98 "HgN/A
12:00 AM70 °FPassing clouds.7 mph88%29.98 "HgN/A
11:00 PM
Nov 26
70 °FMostly cloudy.10 mph88%29.98 "HgN/A
10:00 PM72 °FLight rain. Passing clouds.7 mph88%29.95 "Hg4 mi
9:00 PM72 °FLight rain. Passing clouds.6 mph88%29.92 "HgN/A
8:00 PM72 °FLight rain. Passing clouds.3 mph88%29.89 "HgN/A
7:00 PM70 °FLight rain. Broken clouds.5 mph94%29.86 "HgN/A
6:00 PM73 °FPartly sunny.7 mph78%29.86 "HgN/A
5:00 PM72 °FPartly sunny.7 mph83%29.86 "HgN/A
4:00 PM70 °FThunderstorms. Broken clouds.14 mph88%29.86 "Hg1 mi
3:00 PM81 °FLight rain. Partly sunny.10 mph58%29.86 "HgN/A
2:00 PM82 °FBroken clouds.15 mph58%29.86 "HgN/A
1:00 PM79 °FPartly sunny.14 mph65%29.89 "HgN/A
12:00 PM73 °FMore clouds than sun.13 mph78%29.89 "HgN/A
11:00 AM73 °FOvercast.10 mph78%29.89 "HgN/A
Weather by CustomWeather, © 2014

See weather overviewHow to use our weather pages